Regional Weather Roundup
Issued by NWS

Current Version | Previous Version | Graphics & Text | Print | Product List | Glossary On
Versions: 1 2 3 4 5 6 7 8 9 10 11 12 13 14 15 16 17 18 19 20 21 22 23 24 25 26 27 28 29 30 31 32 33 34 35 36 37 38 39 40 41 42 43 44 45 46 47 48 49 50
000
ASHW40 PHFO 080312
RWRHI

WEATHER ROUNDUP FOR HAWAII
NATIONAL WEATHER SERVICE HONOLULU HI
500 PM HST WED DEC 07 2016

THIS IS AN AUTOMATED REPORT THAT HAS NOT BEEN QUALITY CONTROLLED.

NOTE..."FAIR" INDICATES FEW OR NO CLOUDS BELOW 12,000 FEET WITH NO
SIGNIFICANT WEATHER AND/OR OBSTRUCTIONS TO VISIBILITY.

* - THESE SITES REPORT LIMITED FIELDS

HIZ001>004-080400-
KAUAI-NIIHAU-

CITY           SKY/WX    TMP DP  RH WIND       PRES   REMARKS
LIHUE APT      CLOUDY    78  70  76 NE7       29.92S
PORT ALLEN*      N/A     79 N/A N/A SE14        N/A
POIPU*           N/A     77 N/A N/A E6          N/A
PRINCEVILLE*     N/A     77 N/A N/A E6          N/A
KOKOLE POINT*  NOT AVBL
MOLOAA DAIRY*    N/A     75  70  83 E3          N/A
WAIMEA HTS*    NOT AVBL
PUU OPAE*      NOT AVBL
PUU LUA*       NOT AVBL
MAKAHA RIDGE*  NOT AVBL
$$

HIZ005>011-080400-
OAHU-

CITY           SKY/WX    TMP DP  RH WIND       PRES   REMARKS
HONOLULU       CLOUDY    79  68  69 N8        29.90R
KALAELOA       CLOUDY    79  70  74 NW6       29.91R
KANEOHE MCB    NOT AVBL
WHEELER FIELD  FAIR      75  72  88 VRB3      29.92
BELLOWS*       NOT AVBL
KAHUKU*        NOT AVBL
WHEELER*       NOT AVBL
WAIANAE HARBOR NOT AVBL
DILLINGHAM*      N/A     81  68  65 MISG        N/A
KAHUKU TRN*      N/A     79  73  83 NW3G12      N/A
KAWAILOA*        N/A     72  66  83 E5G17       N/A
KII*             N/A     77  72  83 E9          N/A
MAKUA RANGE*     N/A     81  72  74 SW3G12      N/A
OAHU FOREST NW NOT AVBL
SCHOFIELD BRK*   N/A     73  68  83 MISG        N/A
SCHOFIELD S*   NOT AVBL
WAIANAE VLY*   NOT AVBL
KUAOKALA*      NOT AVBL
HONOULIUULI*   NOT AVBL
MOKUOLOE IS*   NOT AVBL
PALEHUA*       NOT AVBL
WAIAWA PHB*    NOT AVBL
$$

HIZ012>013-080400-
MOLOKAI-

CITY           SKY/WX    TMP DP  RH WIND       PRES   REMARKS
MOLOKAI AIRPT  PTCLDY    78  70  76 NE8       29.91R
KALAUPAPA      NOT AVBL
MAKAPULAPAI*   NOT AVBL
MOLOKAI 1*     NOT AVBL
PUU ALII*      NOT AVBL
$$

HIZ016-080400-
KAHOOLAWE-

CITY           SKY/WX    TMP DP  RH WIND       PRES   REMARKS
KAHOOLAWE*     NOT AVBL
HAKIOAWA*      NOT AVBL
HONOKANAIA*      N/A     80  71  74 E12G21    29.82R
KANELOA*         N/A     77  72  83 E15G24    29.94S
KEALIALALO*    NOT AVBL
LUA MAKIKA*    NOT AVBL
$$

HIZ014>015-080400-
LANAI-

CITY           SKY/WX    TMP DP  RH WIND       PRES   REMARKS
LANAI CITY     MOCLDY    73  70  90 N6        29.96S
LANAI 1*       NOT AVBL
$$

HIZ017>028-080400-
MAUI-

CITY           SKY/WX    TMP DP  RH WIND       PRES   REMARKS
KAHULUI        PTCLDY    79  72  79 NE18      29.89R
KAPALUA-W MAUI NOT AVBL
HANA AIRPORT   CLOUDY    75  73  94 E6        29.94R
HANA*            N/A     77 N/A N/A SE5         N/A
HALEAKALA SUMM   N/A     46  36  66 S7          N/A
MAALAEA BAY*   NOT AVBL
HALEAKALA*     NOT AVBL
KAUPO GAP*     NOT AVBL
KULA 1*          N/A     58  56  93 NW3         N/A
$$

HIZ023>026-080400-
BIG ISLAND OF HAWAII COAST AND LOWER SLOPES-

CITY           SKY/WX    TMP DP  RH WIND       PRES   REMARKS
KAILUA KONA    PTCLDY    80  73  79 S16       29.86R
HILO           CLOUDY    76  70  82 S5        29.92R
HONOKAA*         N/A     72 N/A N/A VRB1        N/A
KAWAIHAE MWT*    N/A     82 N/A N/A NW5         N/A
KAWAIHAE*      NOT AVBL
SOUTH POINT*     N/A     70 N/A N/A N14G20      N/A
UPOLU AIRPORT* NOT AVBL
KAMUELA*       CLEAR     72  66  83 NE5       30.01R
HAKALAU*       NOT AVBL
KALOKO-HONOKO* NOT AVBL
PALI 2*          N/A     66  66 100 W6G12       N/A
KEALAKOMO*       N/A     79  70  73 NE9         N/A
KAUPULEHU*     NOT AVBL
KAPAPALA*      NOT AVBL
LOWER KAHUKU*  NOT AVBL
PUHE CS*       NOT AVBL
PUHO CS*       NOT AVBL
PTA KEAMUKU*     N/A     70  63  78 CALM        N/A
WAIKOLOA*      NOT AVBL
$$

HIZ027>028-080400-
BIG ISLAND OF HAWAII INTERIOR AND SUMMMITS-

CITY           SKY/WX    TMP DP  RH WIND       PRES   REMARKS
BRADSHAW FIELD MOCLDY    61  55  82 S5        30.24S
MK VISITOR CEN   N/A     50  46  87 W1          N/A
MAUNA KEA*       N/A     36  28  75 SW26        N/A  WCI  23
MAUNA LOA*     NOT AVBL
MAUNA LOA 1*   NOT AVBL
PTA KIPUKA*      N/A     70  64  83 NW2G9       N/A
PTA RANGE 17*    N/A     66  61  82 NW5G12      N/A
PTA WEST*        N/A     66  63  88 NW3G10      N/A
NENE CABIN*    NOT AVBL
AHUMOA*        NOT AVBL
PTA PORTABLE*  NOT AVBL
PUU MALI*        N/A     61  57  88 NW3         N/A
$$

HIC003-080400-
NORTHWEST ISLANDS-

CITY           SKY/WX    TMP DP  RH WIND       PRES   REMARKS
MIDWAY ISLAND  MOSUNNY   72  59  64 N6        30.00R
MIDWAY NOS*    NOT AVBL
FRENCH FRIGATE NOT AVBL
$$

PHZ110>124-180-080400-
BUOY REPORTS

STATION/POSITION TIME  TEMP    WIND        PRES    WAVE   SWELL
                       AIR SEA DIR/SP/G            HT/PER HT/DIR
                 (UTC) (F)     (DEG/KT/KT) (MB)    (FT/S) (FT/D)
BUOY 51001       0250   76 77  180/ 12/ 16 1011.0R   8/14   8/310
BUOY 51101       0250   76 77  180/ 14/ 16 1011.8R   8/15   7/320
BUOY 51100       NOT AVBL
BUOY 51002       0250   76 78  120/ 10/ 12 1011.1R   6/17   5/330
BUOY 51003       0250   78 80   70/  6/  8 1011.4R   6/16   7/320
BUOY 51004       0250   76 79   90/ 16/ 17 1012.1R   6/ 8   5/ 90
BARBERS PT BUOY  NOT AVBL
WAIMEA BAY BUOY  NOT AVBL
KAILUA BAY BUOY  0234      78                N/A     6/10   3/ 10
LANAI BUOY       0245      80                N/A     2/13   2/220
BARBERS PT 2     0239      79                N/A     4/15   3/320
PAUWELA MAUI     0239      78                N/A     6/17   3/320
HILO             0242      78                N/A     6/ 9   3/340
KANEOHE BAY BUOY 0236      77                N/A     5/11   3/ 10
HANALEI KAUAI    0252      78                N/A     7/14   5/310
KAHULUI HARBOR   0242   77 78   10/ 12/ 14 1012.5R
HONOLULU HARBOR  0242   80 78   70/  7/ 10 1012.9R
KILO NALU        NOT AVBL
HILO HARBOR      0242   78 76  160/  4/  7 1012.8R
MOKUOLOE         0236   77     100/  3/  6   N/A
NAWILIWILI       0242   76 78   80/  5/  6 1012.9R
WHOTS BUOY       NOT AVBL
BUOY 51028       NOT AVBL
$$

......................KEY........................................
  SKY/WX - SKY CONDITIONS/PRESENT WEATHER
  TMP    - TEMPERATURE IN FAHRENHEIT
  DWPT   - DEWPOINT IN FAHRENHEIT
  RH     - RELATIVE HUMIDITY IN PERCENT
  WIND   - DIRECTION AND SPEED /MPH FOR ISLANDS...KTS FOR BUOYS/
  PRES   - MEAN SEA LEVEL PRESSURE IN INCHES OF HG
  VSB    - VISIBILITY IN MILES
  HX     - HEAT INDEX
  WCI    - WIND CHILL INDEX
  VRB    - VARIABLE WIND DIRECTION
  N/A    - NOT AVAILABLE




USA.gov is the U.S. government's official web portal to all federal, state and local government web resources and services.